Terug naar catalogus

ARIANE 5 R/B

ActiefHEO
NORAD 32769·ROCKET BODY·🇫🇷 France

Gelanceerd Apr 18, 2008 vanaf Guiana Space Centre

Loading…

Volgende Passages (komende 24 uur)

TLE

VersSource: Space-Track

Epoch: Sep 14, 2026, 13:15 UTC

1 32769U 08018C   26257.55245472  .00001001  00000-0  35516-3 0  9995
2 32769   1.5434  83.9975 6898386 355.7215   0.5868  2.76527436169031

Volg ARIANE 5 R/B in realtime met AllMySat

Download on the App Store